Wind_Speed
43 42 35 37 40 40 39 37 35 33 36 33 32 28 28 30 32 36 40 43 44 45 49 49 46 48 47 42 43 38 37 34 35 42 33 35 35 29 28 18 27 27 25 27
46 44 41 44 43 42 41 40 39 38 39 37 36 34 30 31 33 34 38 39 39 39 41 48 48 47 48 47 43 43 41 37 34 34 32 36 37 34 23 19 21 27 30 31
46 47 46 44 45 46 45 42 40 40 41 42 38 37 35 34 34 35 37 40 38 36 35 38 42 48 48 50 50 48 45 43 44 45 39 38 38 37 35 34 32 33 37 38
48 47 45 46 46 47 47 44 42 42 41 42 42 40 38 38 38 36 37 39 39 38 36 36 37 39 45 50 53 52 50 51 45 47 47 47 49 46 43 45 45 47 42 44
41 44 48 49 48 48 48 45 45 44 42 42 43 42 40 37 39 39 39 40 40 40 40 38 38 38 41 43 46 52 55 55 53 54 54 52 52 48 51 51 54 52 50 47
41 45 47 49 48 47 49 49 47 46 45 48 46 43 44 40 37 40 41 42 41 40 40 42 42 40 42 44 45 47 50 52 55 55 53 55 56 57 54 52 53 54 51 48
36 40 42 43 45 44 45 45 45 45 46 48 46 45 48 44 43 42 43 44 44 43 42 40 43 44 43 45 47 47 48 51 53 52 52 50 52 53 51 49 50 53 52 51
35 38 39 40 40 38 37 39 39 41 42 44 44 46 47 46 46 45 46 47 48 47 45 42 41 41 41 44 46 48 48 48 49 51 52 55 57 56 52 50 48 51 52 52
35 38 40 40 41 41 42 41 42 42 44 45 47 47 48 48 49 48 48 48 49 49 49 44 43 44 43 40 42 48 48 51 52 54 54 54 54 54 58 56 53 53 53 56
41 41 41 42 41 42 41 42 40 40 40 39 41 39 42 41 41 41 41 42 46 49 50 50 46 45 46 42 41 44 49 51 53 56 57 57 55 53 52 49 47 52 56 61
46 47 46 45 44 44 45 45 44 43 44 42 39 43 40 41 43 44 44 42 41 43 47 50 52 51 49 47 45 45 46 50 55 56 56 56 57 55 52 52 51 55 60 65
44 48 47 47 54 53 52 50 49 49 47 47 48 50 48 48 48 49 48 48 46 43 39 44 42 41 50 54 51 48 47 47 48 50 54 55 58 56 54 55 56 60 58 60
34 38 39 42 44 47 46 41 44 48 50 48 50 51 53 52 53 53 54 52 49 49 44 41 48 47 43 44 46 52 49 49 48 49 49 52 54 54 53 53 55 58 56 47
29 30 32 33 35 37 38 39 41 43 44 45 46 48 49 50 52 53 53 52 52 52 53 59 59 54 48 50 48 47 50 50 51 49 52 53 53 59 57 55 52 54 50 47
24 26 29 31 32 33 34 35 35 36 36 36 36 37 38 40 41 44 47 48 50 51 50 52 57 61 62 54 54 55 55 52 50 54 55 51 54 55 57 54 55 53 49 45
25 25 26 25 24 24 23 26 25 19 16 19 23 23 28 30 32 35 38 42 47 51 54 53 53 56 62 72 69 58 57 54 60 58 59 63 62 57 55 56 58 60 57 53
24 27 27 25 25 19 17 17 15 15 12 11 11 10 10 14 14 15 17 18 20 28 36 43 50 56 58 62 69 74 67 59 58 60 66 63 65 64 59 59 57 54 52 49
20 22 19 14 13 10 12 14 15 14 12 12 15 16 19 20 21 23 25 29 28 28 27 28 29 31 40 51 61 63 65 69 73 70 66 66 68 67 66 68 67 62 59 56
14 10 9 10 11 11 11 12 14 15 15 17 18 21 24 25 27 28 31 34 34 34 34 36 37 36 34 33 39 48 55 60 62 69 73 74 76 75 70 68 71 70 67 60
11 10 11 12 11 9 12 15 16 17 15 21 22 25 26 26 29 28 34 36 38 40 40 38 37 40 42 42 41 35 37 41 42 47 59 65 70 76 77 74 70 71 68 63
11 10 9 11 11 10 16 17 19 20 20 20 20 23 26 29 34 34 34 36 39 41 42 43 42 43 43 43 44 44 41 38 39 38 38 44 49 56 62 67 71 70 68 65
11 10 10 12 13 12 16 17 19 19 17 17 20 25 29 31 32 34 35 35 35 37 37 40 44 44 45 46 45 44 44 44 43 41 38 36 35 37 44 51 57 60 62 63
10 11 10 12 13 15 15 19 15 14 19 23 27 30 35 37 36 35 34 35 35 35 36 35 34 35 36 38 40 44 44 44 43 41 40 39 37 35 35 37 45 49 51 50
11 11 10 12 16 16 17 15 15 19 24 29 33 36 39 39 39 36 35 35 33 31 30 30 32 33 35 38 39 39 40 42 44 43 42 41 40 38 37 35 33 43 46 48
12 11 11 14 14 14 17 19 21 24 28 33 36 39 39 38 35 35 32 30 29 27 27 28 29 30 32 34 36 40 43 43 44 44 43 41 41 41 39 38 35 34 44 47
10 11 10 12 13 18 21 22 25 27 32 36 36 34 35 34 32 31 30 27 22 25 25 30 36 37 30 26 27 30 33 38 42 44 45 43 39 39 39 40 37 39 35 42
Wind_Direction
259 258 259 257 256 258 258 256 258 257 259 259 259 260 255 251 251 254 253 252 250 249 248 249 252 256 256 254 255 255 258 257 254 246 250 262 267 275 278 248 240 230 243 249
256 258 255 255 256 256 257 256 253 257 259 260 261 261 258 256 254 253 256 254 255 258 255 251 253 254 258 259 255 255 253 251 243 243 250 250 252 258 252 266 273 275 267 256
254 254 254 254 254 255 255 254 252 253 255 259 258 259 260 261 260 256 255 260 257 251 252 254 253 255 256 258 260 262 256 245 243 247 243 245 248 255 256 258 267 276 276 273
254 255 256 255 254 255 256 255 254 255 256 256 258 257 257 258 260 259 259 255 257 255 250 247 247 248 249 253 256 257 261 267 256 250 252 259 258 259 260 262 263 270 275 273
254 252 253 255 257 256 257 256 256 255 256 255 257 260 257 258 260 260 259 259 256 255 253 247 246 244 247 247 249 254 256 257 260 267 265 257 257 258 259 260 258 262 269 268
252 253 252 254 256 257 258 259 260 260 258 255 253 255 257 252 250 255 258 259 259 256 251 251 247 241 242 248 248 249 253 255 256 259 262 265 266 266 263 258 259 263 263 262
253 252 253 255 257 255 255 257 258 257 254 257 255 253 255 255 251 250 252 255 257 259 259 254 252 250 243 240 246 248 247 250 254 256 257 257 259 261 261 261 260 260 260 260
250 248 249 251 253 254 252 250 250 253 254 255 256 256 256 259 257 255 254 256 257 257 257 258 260 257 251 246 243 241 243 245 248 249 251 254 255 255 254 253 249 253 254 253
254 254 256 256 254 252 252 249 250 253 254 254 255 258 260 262 265 264 261 258 258 259 258 253 253 256 257 252 247 247 242 239 239 242 247 251 254 253 253 253 250 249 250 248
253 254 259 259 258 260 259 257 259 263 262 260 262 262 262 262 263 263 264 264 262 261 260 261 255 251 252 253 251 247 247 247 243 243 244 246 248 253 253 254 253 251 250 249
257 257 259 261 261 259 260 260 262 264 264 264 267 269 269 268 266 267 265 260 263 261 261 259 258 254 250 249 249 251 247 245 246 248 249 247 248 250 250 252 252 249 251 250
259 258 260 261 261 261 258 257 260 264 267 266 266 269 271 271 271 270 267 265 264 259 268 260 259 261 257 253 249 249 248 248 248 247 247 249 251 252 253 251 251 252 254 264
268 267 266 265 265 266 263 259 258 260 262 262 264 269 271 271 269 269 269 268 262 257 246 248 264 265 258 253 250 247 244 246 249 249 247 246 246 246 250 254 256 255 257 268
274 270 267 265 264 263 261 260 260 259 259 260 261 262 264 265 266 267 267 266 264 261 256 253 251 253 247 247 247 246 247 247 247 251 248 245 244 243 242 247 249 253 257 265
282 278 274 271 266 263 262 262 262 260 259 260 260 261 260 262 262 262 263 264 266 265 261 257 253 251 245 238 242 242 248 250 251 249 248 245 242 241 244 244 247 250 254 259
282 276 275 274 271 266 263 256 257 252 249 251 250 252 257 262 265 269 270 270 268 266 265 261 257 254 250 249 248 242 242 243 252 252 249 252 251 243 247 253 257 260 262 266
276 274 273 274 271 264 248 242 226 236 221 241 251 252 263 277 276 277 283 289 283 275 272 270 266 259 254 253 252 254 251 248 246 249 251 251 252 253 247 248 251 254 259 261
273 269 274 265 251 235 225 235 240 242 249 262 271 280 283 286 282 277 283 287 287 284 281 280 277 272 263 259 254 251 253 251 248 248 247 247 250 251 251 252 255 256 258 261
259 237 244 246 248 240 241 241 245 250 265 271 278 286 285 286 284 284 285 287 285 281 278 276 275 276 274 269 259 255 252 251 251 253 255 254 251 251 253 253 251 255 256 255
216 229 243 247 248 245 263 262 263 268 273 280 287 288 291 294 293 293 292 290 288 286 284 279 274 271 270 268 270 264 258 255 252 251 251 252 253 253 253 254 254 252 254 258
229 233 245 251 252 255 265 270 277 284 285 280 284 290 297 297 294 291 286 284 283 282 281 281 278 275 272 266 263 266 264 262 260 260 253 251 251 252 253 255 253 253 254 257
236 238 248 257 266 266 268 276 277 279 277 280 289 293 299 300 300 297 294 290 283 280 280 281 280 277 274 270 264 259 260 260 259 259 259 255 254 249 247 246 250 252 253 255
245 246 256 265 273 282 279 278 279 285 288 291 296 303 306 305 303 299 295 291 289 288 288 285 283 280 278 274 266 260 256 255 256 256 256 255 254 252 252 247 242 244 246 247
253 255 264 279 283 288 282 279 287 290 296 303 307 308 306 307 303 300 294 289 290 291 289 287 285 282 279 277 276 270 265 261 256 253 250 246 246 247 246 246 242 236 232 231
252 256 271 278 285 283 287 295 300 304 307 307 309 307 309 307 303 297 292 292 293 293 294 291 288 285 283 279 275 271 268 265 261 257 252 248 242 240 239 240 240 236 232 224
249 262 274 272 285 290 296 302 303 308 307 308 308 312 312 310 309 305 301 298 298 301 301 302 296 290 286 281 280 277 276 268 261 257 252 248 244 240 236 235 236 240 236 231
Height
5815 5817 5820 5819 5819 5821 5823 5825 5828 5828 5826 5828 5828 5831 5832 5832 5834 5835 5837 5838 5842 5846 5850 5855 5860 5861 5865 5870 5872 5877 5880 5882 5882 5882 5883 5881 5882 5884 5886 5891 5890 5893 5895 5897
5805 5808 5808 5808 5810 5811 5813 5816 5819 5819 5818 5820 5822 5824 5827 5826 5826 5829 5829 5830 5834 5838 5843 5846 5850 5852 5854 5857 5862 5865 5870 5874 5875 5875 5877 5879 5879 5880 5882 5884 5885 5888 5889 5891
5793 5795 5796 5797 5800 5801 5802 5805 5809 5811 5811 5811 5814 5816 5818 5819 5819 5821 5824 5824 5825 5828 5832 5836 5842 5843 5845 5847 5850 5854 5859 5864 5868 5866 5867 5870 5874 5875 5876 5875 5877 5879 5881 5883
5782 5784 5785 5786 5788 5790 5791 5795 5798 5800 5803 5803 5804 5807 5809 5812 5812 5813 5815 5817 5818 5820 5822 5825 5829 5833 5835 5838 5841 5843 5846 5849 5854 5858 5860 5862 5865 5867 5869 5869 5872 5873 5873 5874
5773 5772 5772 5775 5778 5780 5782 5784 5787 5789 5791 5794 5795 5796 5799 5803 5804 5804 5805 5807 5810 5812 5813 5816 5819 5823 5825 5828 5831 5834 5836 5840 5841 5845 5848 5852 5855 5859 5858 5861 5860 5862 5862 5862
5760 5759 5762 5764 5767 5770 5771 5774 5776 5778 5780 5782 5784 5785 5787 5792 5795 5794 5795 5796 5800 5802 5804 5805 5808 5812 5816 5818 5820 5824 5826 5828 5831 5833 5835 5838 5841 5843 5846 5849 5850 5852 5851 5852
5751 5750 5752 5754 5756 5759 5760 5763 5765 5767 5767 5771 5772 5774 5774 5778 5782 5785 5786 5786 5787 5790 5792 5795 5796 5799 5804 5808 5810 5813 5816 5817 5820 5822 5824 5826 5827 5828 5830 5835 5838 5839 5839 5841
5741 5741 5741 5744 5746 5750 5752 5753 5754 5755 5758 5760 5759 5760 5764 5766 5769 5772 5774 5775 5776 5779 5782 5785 5787 5788 5791 5795 5799 5802 5804 5807 5809 5811 5812 5813 5815 5818 5818 5822 5826 5827 5828 5828
5731 5731 5733 5735 5737 5740 5741 5743 5745 5745 5746 5747 5748 5750 5751 5755 5756 5758 5761 5763 5764 5765 5768 5772 5775 5777 5779 5782 5786 5789 5793 5794 5796 5797 5800 5802 5803 5804 5807 5809 5811 5815 5816 5815
5721 5722 5724 5726 5728 5729 5730 5732 5734 5734 5735 5737 5736 5738 5739 5741 5743 5745 5747 5749 5751 5753 5755 5757 5761 5765 5767 5770 5772 5775 5779 5782 5784 5785 5786 5788 5790 5792 5795 5797 5801 5803 5804 5803
5711 5713 5715 5716 5718 5719 5720 5721 5723 5725 5725 5726 5728 5726 5729 5731 5731 5731 5734 5736 5737 5739 5740 5743 5746 5750 5752 5755 5759 5760 5763 5766 5769 5772 5775 5776 5777 5778 5780 5782 5785 5786 5786 5787
5700 5702 5702 5705 5705 5708 5709 5710 5711 5712 5715 5716 5716 5715 5718 5717 5718 5719 5721 5722 5723 5725 5727 5729 5731 5734 5737 5740 5744 5746 5747 5750 5753 5756 5760 5762 5765 5768 5769 5770 5772 5774 5774 5774
5689 5688 5690 5692 5695 5694 5695 5698 5699 5701 5702 5705 5703 5707 5702 5704 5705 5705 5705 5707 5710 5712 5714 5714 5716 5719 5722 5725 5727 5731 5733 5735 5736 5740 5744 5748 5751 5755 5757 5758 5758 5761 5762 5762
5679 5679 5680 5681 5681 5682 5684 5685 5687 5689 5690 5691 5692 5691 5690 5690 5689 5690 5690 5691 5694 5695 5698 5699 5702 5704 5706 5710 5712 5715 5718 5721 5725 5727 5730 5732 5735 5740 5742 5746 5746 5748 5752 5753
5669 5669 5669 5669 5670 5671 5672 5674 5675 5676 5678 5679 5679 5678 5678 5676 5676 5675 5675 5676 5677 5678 5681 5683 5685 5687 5690 5693 5697 5699 5703 5705 5710 5715 5718 5720 5723 5724 5728 5732 5736 5736 5741 5745
5661 5661 5660 5660 5660 5661 5663 5663 5665 5667 5668 5669 5669 5670 5667 5667 5667 5666 5665 5665 5665 5665 5664 5666 5668 5670 5672 5674 5679 5683 5686 5689 5693 5696 5701 5703 5708 5712 5714 5717 5721 5723 5726 5730
5654 5652 5652 5653 5652 5654 5656 5656 5659 5660 5663 5664 5664 5664 5664 5663 5662 5660 5659 5658 5657 5655 5653 5652 5652 5654 5655 5658 5661 5663 5669 5671 5676 5680 5683 5687 5690 5694 5698 5703 5706 5711 5713 5717
5647 5646 5646 5646 5648 5650 5652 5653 5654 5656 5657 5658 5657 5657 5656 5655 5654 5652 5650 5649 5649 5647 5646 5644 5641 5640 5640 5641 5644 5647 5650 5654 5658 5661 5664 5668 5672 5676 5681 5686 5690 5696 5701 5705
5641 5642 5643 5644 5645 5648 5649 5650 5650 5651 5652 5651 5651 5650 5648 5646 5645 5644 5641 5638 5637 5636 5635 5633 5631 5630 5629 5627 5627 5629 5632 5635 5638 5641 5644 5648 5653 5660 5665 5670 5675 5679 5684 5692
5638 5639 5641 5641 5642 5645 5645 5645 5646 5646 5648 5645 5643 5642 5640 5638 5636 5637 5632 5629 5626 5623 5621 5620 5619 5617 5617 5616 5615 5617 5618 5619 5622 5624 5626 5629 5632 5638 5644 5652 5658 5664 5669 5676
5635 5636 5637 5637 5639 5642 5641 5641 5641 5641 5643 5638 5637 5635 5634 5632 5628 5626 5624 5620 5615 5612 5609 5606 5605 5603 5602 5603 5603 5604 5606 5607 5607 5609 5612 5613 5616 5620 5624 5630 5638 5644 5652 5659
5632 5633 5634 5634 5635 5638 5637 5636 5636 5635 5633 5633 5632 5629 5626 5623 5619 5614 5610 5606 5604 5601 5598 5595 5590 5589 5587 5585 5587 5590 5592 5592 5593 5596 5598 5601 5602 5604 5607 5612 5617 5624 5633 5641
5630 5630 5631 5631 5631 5631 5631 5629 5629 5629 5628 5626 5624 5620 5615 5611 5607 5603 5599 5594 5591 5587 5584 5581 5578 5575 5573 5571 5571 5573 5576 5577 5579 5583 5585 5587 5590 5592 5594 5597 5601 5608 5615 5623
5625 5625 5626 5626 5625 5625 5624 5624 5624 5623 5621 5617 5613 5609 5604 5600 5594 5590 5586 5582 5579 5576 5573 5570 5567 5564 5562 5559 5558 5559 5560 5561 5564 5567 5570 5574 5577 5579 5582 5586 5590 5593 5600 5608
5621 5621 5621 5621 5621 5620 5619 5619 5618 5616 5613 5609 5605 5599 5594 5588 5583 5579 5574 5571 5568 5566 5563 5559 5556 5553 5550 5547 5545 5545 5545 5546 5548 5550 5553 5557 5562 5566 5569 5573 5578 5582 5587 5595
5617 5618 5618 5618 5618 5616 5614 5613 5611 5609 5604 5600 5595 5590 5583 5577 5574 5570 5565 5562 5559 5556 5553 5549 5544 5540 5537 5535 5533 5532 5532 5531 5531 5533 5536 5540 5545 5551 5555 5560 5565 5570 5576 5581